This is the latest recevied weather packets stored in our database for station/object W3EJE-13. If no packets are shown the sender has not sent any weather packets the latest 1 day(s).
| Time | Temp. | Humidity | Pressure | Rain* | Wind** | Luminosity | Snow |
|---|---|---|---|---|---|---|---|
| 1778042458 | 13.89° C | 85% | 1011.1 hPa | 0 mm | - | 0 W/m² | - |
| 1778042155 | 13.89° C | 85% | 1011.4 hPa | 0 mm | - | 0 W/m² | - |
| 1778041854 | 14.44° C | 84% | 1011.5 hPa | 0 mm | - | 0 W/m² | - |
| 1778041553 | 14.44° C | 83% | 1011.3 hPa | 0 mm | - | 0 W/m² | - |
| 1778041250 | 13.89° C | 85% | 1011.7 hPa | 0 mm | - | 0 W/m² | - |
| 1778040949 | 13.89° C | 86% | 1011.5 hPa | 0 mm | - | 0 W/m² | - |
| 1778040645 | 13.89° C | 87% | 1011.6 hPa | 0 mm | - | 0 W/m² | - |
| 1778040343 | 13.89° C | 87% | 1011.4 hPa | 0 mm | - | 0 W/m² | - |
| 1778040038 | 13.89° C | 84% | 1011 hPa | 0 mm | - | 0 W/m² | - |
| 1778039736 | 14.44° C | 84% | 1011.2 hPa | 0 mm | - | 0 W/m² | - |
| 1778039432 | 14.44° C | 80% | 1011.3 hPa | 0 mm | - | 0 W/m² | - |
| 1778039130 | 14.44° C | 80% | 1011.4 hPa | 0 mm | - | 0 W/m² | - |
| 1778038826 | 14.44° C | 80% | 1011 hPa | 0 mm | - | 0 W/m² | - |
| 1778038524 | 14.44° C | 81% | 1011.2 hPa | 0 mm | - | 0 W/m² | - |
| 1778038221 | 14.44° C | 82% | 1011.5 hPa | 0 mm | - | 0 W/m² | - |
| 1778037615 | 14.44° C | 82% | 1011.2 hPa | 0 mm | - | 0 W/m² | - |
| 1778037313 | 14.44° C | 81% | 1011.6 hPa | 0 mm | - | 0 W/m² | - |
| 1778036708 | 13.89° C | 82% | 1011.7 hPa | 0 mm | - | 0 W/m² | - |
| 1778036101 | 13.89° C | 82% | 1011.5 hPa | 0 mm | - | 0 W/m² | - |
| 1778035494 | 13.89° C | 82% | 1011.7 hPa | 0 mm | - | 0 W/m² | - |
| 1778035190 | 13.89° C | 80% | 1011.5 hPa | 0 mm | - | 0 W/m² | - |
| 1778034887 | 14.44° C | 80% | 1011.9 hPa | 0 mm | - | 0 W/m² | - |
| 1778034584 | 14.44° C | 79% | 1011.2 hPa | 0 mm | - | 0 W/m² | - |
| 1778034282 | 14.44° C | 79% | 1011.5 hPa | 0 mm | - | 0 W/m² | - |
| 1778033979 | 14.44° C | 78% | 1011.5 hPa | 0 mm | - | 0 W/m² | - |
* Rain latest hour (hover to see other rain measurements)
** Current wind speed in m/s (hover to see current wind gust speed)